• în România
  • Lista ţărilor
  • Pe 7 zile
  • Temperatura apei
  • Hartă satelitară
  • Meteo pe hartă
  • Widget-uri
  • user-avatar
    Intrare

    Meteo pe oră la Adelaide

    Astăzi, 18 Octombrie, Miercuri

    Timp Temperatura Precipitaţii Vânt Presiune Umiditate
    00:00 +25°C° 0 mm 5 m/s 757 mmHg 42%
    01:00 +25°C° 0 mm 5 m/s 757 mmHg 43%
    02:00 +25°C° 0 mm 5 m/s 757 mmHg 44%
    03:00 +25°C° 0 mm 5 m/s 756 mmHg 44%
    04:00 +25°C° 0 mm 5 m/s 757 mmHg 44%
    05:00 +25°C° 0 mm 5 m/s 757 mmHg 45%
    06:00 +25°C° 0 mm 5 m/s 757 mmHg 45%
    07:00 +27°C° 0 mm 6 m/s 757 mmHg 41%
    08:00 +29°C° 0 mm 6 m/s 757 mmHg 38%
    09:00 +33°C° 0 mm 6 m/s 757 mmHg 33%
    10:00 +33°C° 0 mm 6 m/s 757 mmHg 31%
    11:00 +34°C° 0 mm 5 m/s 756 mmHg 30%
    12:00 +35°C° 0 mm 5 m/s 756 mmHg 28%
    13:00 +35°C° 0 mm 4 m/s 756 mmHg 30%
    14:00 +34°C° 0 mm 4 m/s 755 mmHg 31%
    15:00 +33°C° 0 mm 3 m/s 755 mmHg 34%
    16:00 +31°C° 0 mm 3 m/s 755 mmHg 37%
    17:00 +30°C° 0 mm 3 m/s 755 mmHg 40%
    18:00 +29°C° 0 mm 3 m/s 756 mmHg 43%
    19:00 +27°C° 0 mm 3 m/s 756 mmHg 48%
    20:00 +26°C° 0 mm 4 m/s 756 mmHg 53%
    21:00 +25°C° 0 mm 4 m/s 757 mmHg 58%
    22:00 +22°C° 0,4 mm 3 m/s 757 mmHg 67%
    23:00 +21°C° 0,4 mm 2 m/s 757 mmHg 75%

    Mâine, 19 Octombrie, Joi

    Timp Temperatura Precipitaţii Vânt Presiune Umiditate
    00:00 +21°C° 0,4 mm 1 m/s 757 mmHg 83%
    01:00 +20°C° 0,7 mm 2 m/s 757 mmHg 84%
    02:00 +20°C° 0,7 mm 2 m/s 757 mmHg 86%
    03:00 +20°C° 0,7 mm 3 m/s 757 mmHg 88%
    04:00 +20°C° 0,1 mm 3 m/s 758 mmHg 89%
    05:00 +19°C° 0,1 mm 3 m/s 759 mmHg 90%
    06:00 +19°C° 0,1 mm 4 m/s 759 mmHg 92%
    07:00 +19°C° 0 mm 4 m/s 760 mmHg 86%
    08:00 +20°C° 0 mm 5 m/s 761 mmHg 81%
    09:00 +20°C° 0 mm 5 m/s 761 mmHg 75%
    10:00 +21°C° 0 mm 5 m/s 762 mmHg 68%
    11:00 +22°C° 0 mm 6 m/s 762 mmHg 60%
    12:00 +22°C° 0 mm 6 m/s 762 mmHg 52%
    13:00 +22°C° 0 mm 6 m/s 762 mmHg 50%
    14:00 +21°C° 0 mm 6 m/s 763 mmHg 49%
    15:00 +21°C° 0 mm 6 m/s 763 mmHg 47%
    16:00 +19°C° 0 mm 6 m/s 763 mmHg 53%
    17:00 +17°C° 0 mm 6 m/s 764 mmHg 58%
    18:00 +15°C° 0 mm 5 m/s 764 mmHg 63%
    19:00 +14°C° 0 mm 5 m/s 765 mmHg 67%
    20:00 +14°C° 0 mm 5 m/s 765 mmHg 71%
    21:00 +13°C° 0 mm 5 m/s 766 mmHg 76%
    22:00 +12°C° 0 mm 4 m/s 766 mmHg 77%
    23:00 +12°C° 0 mm 4 m/s 766 mmHg 78%

    Poimâine, 20 Octombrie, Vineri

    Timp Temperatura Precipitaţii Vânt Presiune Umiditate
    00:00 +12°C° 0 mm 4 m/s 766 mmHg 79%
    01:00 +12°C° 0 mm 4 m/s 766 mmHg 80%
    02:00 +12°C° 0 mm 4 m/s 767 mmHg 80%
    03:00 +11°C° 0 mm 4 m/s 767 mmHg 81%
    04:00 +12°C° 0 mm 4 m/s 767 mmHg 78%
    05:00 +12°C° 0 mm 4 m/s 768 mmHg 76%
    06:00 +12°C° 0 mm 4 m/s 768 mmHg 74%
    07:00 +14°C° 0 mm 4 m/s 768 mmHg 66%
    08:00 +15°C° 0 mm 5 m/s 769 mmHg 58%
    09:00 +16°C° 0 mm 5 m/s 769 mmHg 49%
    10:00 +17°C° 0 mm 5 m/s 769 mmHg 47%
    11:00 +19°C° 0 mm 6 m/s 768 mmHg 45%
    12:00 +20°C° 0 mm 6 m/s 768 mmHg 43%
    13:00 +20°C° 0 mm 6 m/s 768 mmHg 44%
    14:00 +18°C° 0 mm 7 m/s 767 mmHg 45%
    15:00 +18°C° 0 mm 7 m/s 767 mmHg 46%
    16:00 +16°C° 0 mm 7 m/s 767 mmHg 52%
    17:00 +15°C° 0 mm 6 m/s 768 mmHg 59%
    18:00 +13°C° 0 mm 6 m/s 768 mmHg 65%
    19:00 +11°C° 0 mm 6 m/s 768 mmHg 70%
    20:00 +12°C° 0 mm 5 m/s 769 mmHg 75%
    21:00 +10°C° 0 mm 5 m/s 769 mmHg 80%
    22:00 +9°C° 0 mm 5 m/s 769 mmHg 82%
    23:00 +10°C° 0 mm 4 m/s 769 mmHg 83%

    21 Octombrie, Sâmbătă

    Timp Temperatura Precipitaţii Vânt Presiune Umiditate
    00:00 +10°C° 0 mm 4 m/s 768 mmHg 85%
    01:00 +8°C° 0 mm 4 m/s 768 mmHg 85%
    02:00 +8°C° 0 mm 4 m/s 768 mmHg 86%
    03:00 +9°C° 0 mm 3 m/s 768 mmHg 86%
    04:00 +9°C° 0 mm 3 m/s 768 mmHg 85%
    05:00 +10°C° 0 mm 3 m/s 768 mmHg 83%
    06:00 +10°C° 0 mm 3 m/s 768 mmHg 82%
    07:00 +12°C° 0 mm 3 m/s 768 mmHg 73%
    08:00 +14°C° 0 mm 4 m/s 768 mmHg 65%
    09:00 +17°C° 0 mm 4 m/s 768 mmHg 57%
    10:00 +18°C° 0 mm 4 m/s 767 mmHg 53%
    11:00 +19°C° 0 mm 5 m/s 767 mmHg 50%
    12:00 +19°C° 0 mm 5 m/s 767 mmHg 47%
    13:00 +19°C° 0 mm 6 m/s 766 mmHg 48%
    14:00 +19°C° 0 mm 6 m/s 765 mmHg 50%
    15:00 +19°C° 0 mm 6 m/s 765 mmHg 52%
    16:00 +16°C° 0 mm 6 m/s 765 mmHg 57%
    17:00 +15°C° 0 mm 6 m/s 765 mmHg 62%
    18:00 +13°C° 0 mm 5 m/s 765 mmHg 68%
    19:00 +13°C° 0 mm 5 m/s 765 mmHg 72%
    20:00 +12°C° 0 mm 4 m/s 766 mmHg 76%
    21:00 +11°C° 0 mm 4 m/s 766 mmHg 80%
    22:00 +11°C° 0 mm 4 m/s 765 mmHg 80%
    23:00 +11°C° 0 mm 4 m/s 765 mmHg 81%

    22 Octombrie, Duminică

    Timp Temperatura Precipitaţii Vânt Presiune Umiditate
    00:00 +11°C° 0 mm 4 m/s 764 mmHg 81%
    01:00 +11°C° 0 mm 4 m/s 764 mmHg 81%
    02:00 +11°C° 0 mm 4 m/s 764 mmHg 81%
    03:00 +11°C° 0 mm 4 m/s 763 mmHg 81%
    04:00 +11°C° 0 mm 3 m/s 763 mmHg 80%
    05:00 +12°C° 0 mm 3 m/s 764 mmHg 78%
    06:00 +12°C° 0 mm 3 m/s 764 mmHg 77%
    07:00 +13°C° 0 mm 3 m/s 764 mmHg 71%
    08:00 +14°C° 0 mm 4 m/s 764 mmHg 65%
    09:00 +17°C° 0 mm 4 m/s 764 mmHg 59%
    10:00 +17°C° 0 mm 4 m/s 763 mmHg 58%
    11:00 +17°C° 0 mm 5 m/s 763 mmHg 57%
    12:00 +17°C° 0 mm 5 m/s 763 mmHg 56%
    13:00 +17°C° 0 mm 5 m/s 762 mmHg 57%
    14:00 +17°C° 0 mm 5 m/s 762 mmHg 59%
    15:00 +16°C° 0 mm 5 m/s 762 mmHg 61%
    16:00 +16°C° 0 mm 5 m/s 762 mmHg 66%
    17:00 +15°C° 0 mm 4 m/s 762 mmHg 70%
    18:00 +14°C° 0 mm 4 m/s 762 mmHg 75%
    19:00 +13°C° 0 mm 3 m/s 762 mmHg 80%
    20:00 +13°C° 0 mm 3 m/s 763 mmHg 84%
    21:00 +12°C° 0 mm 3 m/s 763 mmHg 89%
    22:00 +13°C° 0 mm 2 m/s 762 mmHg 89%
    23:00 +13°C° 0 mm 2 m/s 762 mmHg 90%

    23 Octombrie, Luni

    Timp Temperatura Precipitaţii Vânt Presiune Umiditate
    00:00 +13°C° 0 mm 1 m/s 762 mmHg 90%
    01:00 +13°C° 0 mm 1 m/s 762 mmHg 90%
    02:00 +13°C° 0 mm 1 m/s 762 mmHg 89%
    03:00 +13°C° 0 mm 1 m/s 761 mmHg 89%
    04:00 +13°C° 0 mm 1 m/s 762 mmHg 88%
    05:00 +13°C° 0 mm 1 m/s 762 mmHg 87%
    06:00 +13°C° 0 mm 1 m/s 762 mmHg 87%
    07:00 +16°C° 0 mm 1 m/s 762 mmHg 77%
    08:00 +19°C° 0 mm 1 m/s 762 mmHg 67%
    09:00 +21°C° 0 mm 1 m/s 762 mmHg 57%
    10:00 +21°C° 0 mm 1 m/s 762 mmHg 56%
    11:00 +21°C° 0 mm 1 m/s 761 mmHg 56%
    12:00 +21°C° 0 mm 1 m/s 761 mmHg 56%
    13:00 +20°C° 0 mm 2 m/s 760 mmHg 55%
    14:00 +20°C° 0 mm 2 m/s 760 mmHg 54%
    15:00 +21°C° 0 mm 2 m/s 759 mmHg 52%
    16:00 +20°C° 0 mm 2 m/s 759 mmHg 57%
    17:00 +18°C° 0 mm 2 m/s 759 mmHg 62%
    18:00 +17°C° 0 mm 3 m/s 760 mmHg 67%
    19:00 +16°C° 0 mm 3 m/s 760 mmHg 72%
    20:00 +14°C° 0 mm 3 m/s 760 mmHg 77%
    21:00 +13°C° 0 mm 3 m/s 760 mmHg 82%
    22:00 +13°C° 0 mm 3 m/s 760 mmHg 82%
    23:00 +12°C° 0 mm 3 m/s 760 mmHg 82%
    Arată mai mult